Back to catalog

SL-12 R/B(2)

AliveGEO
NORAD 38104·ROCKET BODY·🇷🇺 Russia

Launched Mar 30, 2012 from Baikonur Cosmodrome

Loading…

TLE

FreshSource: Space-Track

Epoch: Sep 14, 2026, 10:34 UTC

1 38104U 12012D   26257.44030009 -.00000130  00000-0  00000-0 0  9999
2 38104   9.0410  55.6287 0011252 303.1050  49.9037  1.00387615 52952

Track SL-12 R/B(2) in real time with AllMySat

Download on the App Store